This is the latest recevied weather packets stored in our database for station/object KD0ISH. If no packets are shown the sender has not sent any weather packets the latest 10 day(s).
| Time | Temp. | Humidity | Pressure | Rain* | Wind** | Luminosity | Snow |
|---|---|---|---|---|---|---|---|
| 1777324287 | 30° C | 49% | 1004.1 hPa | 0 mm | - | 413 W/m² | - |
| 1777323985 | 29.44° C | 53% | 1004 hPa | 0 mm | - | 530 W/m² | - |
| 1777323682 | 29.44° C | 52% | 1004.2 hPa | 0 mm | - | 146 W/m² | - |
| 1777323379 | 29.44° C | 58% | 1004.4 hPa | 0 mm | - | 170 W/m² | - |
| 1777323077 | 28.89° C | 56% | 1004.2 hPa | 0 mm | - | 401 W/m² | - |
| 1777322775 | 28.89° C | 57% | 1004.4 hPa | 0 mm | - | 123 W/m² | - |
| 1777322473 | 28.89° C | 56% | 1004.5 hPa | 0 mm | - | 194 W/m² | - |
| 1777322169 | 29.44° C | 58% | 1004.3 hPa | 0 mm | - | 196 W/m² | - |
| 1777321866 | 28.89° C | 59% | 1004.2 hPa | 0 mm | - | 439 W/m² | - |
| 1777321563 | 29.44° C | 57% | 1003.9 hPa | 0 mm | - | 516 W/m² | - |
| 1777321260 | 30° C | 59% | 1003.9 hPa | 0 mm | - | 261 W/m² | - |
| 1777320957 | 30° C | 59% | 1003.8 hPa | 0 mm | - | 709 W/m² | - |
| 1777320655 | 29.44° C | 61% | 1003.7 hPa | 0 mm | - | 660 W/m² | - |
| 1777320352 | 29.44° C | 60% | 1003.4 hPa | 0 mm | - | 498 W/m² | - |
| 1777320048 | 29.44° C | 59% | 1003.3 hPa | 0 mm | - | 634 W/m² | - |
| 1777319745 | 29.44° C | 59% | 1003.4 hPa | 0 mm | - | 673 W/m² | - |
| 1777319442 | 28.89° C | 61% | 1003.4 hPa | 0 mm | - | 209 W/m² | - |
| 1777319139 | 29.44° C | 62% | 1003.3 hPa | 0 mm | - | 260 W/m² | - |
| 1777318836 | 28.89° C | 64% | 1003.4 hPa | 0 mm | - | 624 W/m² | - |
| 1777318533 | 29.44° C | 62% | 1003.5 hPa | 0 mm | - | 169 W/m² | - |
| 1777318230 | 28.89° C | 66% | 1003.5 hPa | 0 mm | - | 662 W/m² | - |
| 1777317926 | 28.89° C | 64% | 1003.8 hPa | 0 mm | - | 675 W/m² | - |
| 1777317623 | 28.89° C | 63% | 1003.6 hPa | 0 mm | - | 229 W/m² | - |
| 1777317321 | 28.89° C | 62% | 1003.8 hPa | 0 mm | - | 653 W/m² | - |
| 1777317016 | 29.44° C | 67% | 1003.7 hPa | 0 mm | - | 477 W/m² | - |
* Rain latest hour (hover to see other rain measurements)
** Current wind speed in m/s (hover to see current wind gust speed)